Regional Weather Roundup
Issued by NWS Newport/Morehead, NC

Current Version | Previous Version | Graphics & Text | Print | Product List | Glossary On
Versions: 1 2 3 4 5 6 7 8 9 10 11 12 13 14 15 16 17 18 19 20 21 22 23 24 25 26 27 28 29 30 31 32 33 34 35 36 37 38 39 40 41 42 43 44 45 46 47 48 49 50
516 ASUS42 KMHX 160625 RWRMHX WEATHER ROUNDUP FOR EASTERN NORTH CAROLINA NATIONAL WEATHER SERVICE NEWPORT/MOREHEAD CITY NC 100 AM EST MON JAN 16 2017 NOTE: "FAIR" INDICATES FEW OR NO CLOUDS BELOW 12,000 FEET WITH NO SIGNIFICANT WEATHER AND/OR OBSTRUCTIONS TO VISIBILITY NCZ015>017-031-032-045>047-102-103-160700- NORTH COAST CITY SKY/WX TMP DP RH WIND PRES REMARKS EDENTON CLOUDY 44 37 76 CALM 30.41S ELIZABETH CITY CLOUDY 41 35 79 N8 30.42S KITTY HAWK NOT AVBL MANTEO CLOUDY 44 37 77 N9 30.41R $$ NCZ045>047-081-094-103-104-160700- CENTRAL COAST CITY SKY/WX TMP DP RH WIND PRES REMARKS FRISCO CLOUDY 47 40 76 N8 30.37S $$ NCZ095-097-098-100-101-160700- SOUTHERN COAST CITY SKY/WX TMP DP RH WIND PRES REMARKS BEAUFORT CLOUDY 45 40 82 NE8 30.36F CEDAR ISLAND NOT AVBL JACKSONVILLE CLOUDY 47 42 83 NE8 30.36F PINEY ISLAND CLOUDY N/A N/A N/A N8 30.37F WILMINGTON CLOUDY 49 44 83 NE5 30.34F $$ NCZ011>013-027>030-043-044-078>080-089-090>093-098-160700- COASTAL PLAIN CITY SKY/WX TMP DP RH WIND PRES REMARKS AHOSKIE LGT RAIN 41 23 48 NE3 30.42S CLINTON CLOUDY 49 44 81 E5 30.36S ELIZABETHTOWN CLOUDY 49 46 87 CALM 30.34S GOLDSBORO CLOUDY 46 44 90 E6 30.35F GREENVILLE CLOUDY 43 43 100 E5 30.39S HAVELOCK CLOUDY 45 40 82 NE9 30.38F KENANSVILLE CLOUDY 46 43 87 E3 30.36F KINSTON CLOUDY 46 43 90 E6 30.38F NEW BERN LGT RAIN 44 39 82 E7 30.39S RICHLANDS CLOUDY 45 41 86 NE8 30.36F ROCKY MOUNT CLOUDY 45 39 79 NE5 30.38S WASHINGTON CLOUDY 41 39 93 NE5 30.40F WHITEVILLE CLOUDY 50 46 85 E6 30.32F $$ AMZ130-135-150-152-154-156-158-170-250-252-270-ANZ085-086-088-633-658-670-160700- MARINE OBSERVATIONS STATION/POSITION TIME TEMP WIND PRES WAVE SWELL AIR SEA DIR/SP/G HT/PER HT/PER (UTC) (F) (DEG/KT/KT) (MB) (FT/S) (FT/S) CHESAPEAKE LIGHT NOT AVBL 64 E VA BEACH 0550 49 63 30/ 12/ 16 1028.5 4/ 6 3/ 6 DUCK 0554 45 44 20/ 11/ 13 1029.0 2 E DUCK 0600 45 N/A 3/ 6 OREGON INLET 0554 45 49 360/ 10/ 12 1029.0 13E OREGON INLT NOT AVBL HATTERAS CG 0554 46 54 20/ 14/ 17 1028.0 DIAMOND BUOY 0550 53 73 10/ 16/ 17 1027.6 4/11 3/11 CAPE LOOKOUT 0600 45 10/ 12/ 15 1027.4 BEAUFORT LAB 0554 44 50 20/ 11/ 14 1027.1 30 SE NEW RVR IN 0608 52 65 40/ 16/ 21 1027.1 30 SE NEW RVR IN 0543 65 N/A 4/ 9 2/11 27 SE WRIGHTSVLE 0608 58 70 60/ 16/ 23 1026.0 5 SE WRIGHTSVLE NOT AVBL 225 S CAPE HAT 0550 68 71 70/ 10/ 12 1025.5 4/11 3/11 41 SE CHARLESTON 0550 69 71 90/ 4/ 6 1024.8 3/11 3/11 $$

USA.gov is the U.S. government's official web portal to all federal, state and local government web resources and services.